• în România
  • Lista ţărilor
  • Pe 7 zile
  • Temperatura apei
  • Hartă satelitară
  • Meteo pe hartă
  • Widget-uri
  • user-avatar
    Intrare

    Meteo pe oră la Neuquén

    Astăzi, 22 Februarie, Miercuri

    Timp Temperatura Precipitaţii Vânt Presiune Umiditate
    00:00 +28°C° 0 mm 6 m/s 733 mmHg 35%
    01:00 +28°C° 0 mm 6 m/s 733 mmHg 38%
    02:00 +27°C° 0 mm 5 m/s 733 mmHg 40%
    03:00 +26°C° 0 mm 5 m/s 733 mmHg 43%
    04:00 +26°C° 0 mm 5 m/s 732 mmHg 45%
    05:00 +27°C° 0 mm 4 m/s 733 mmHg 43%
    06:00 +27°C° 0 mm 4 m/s 733 mmHg 41%
    07:00 +28°C° 0 mm 4 m/s 733 mmHg 39%
    08:00 +30°C° 0 mm 3 m/s 733 mmHg 35%
    09:00 +33°C° 0 mm 3 m/s 733 mmHg 31%
    10:00 +34°C° 0 mm 2 m/s 733 mmHg 27%
    11:00 +36°C° 0 mm 2 m/s 732 mmHg 25%
    12:00 +37°C° 0 mm 2 m/s 732 mmHg 23%
    13:00 +38°C° 0 mm 2 m/s 731 mmHg 21%
    14:00 +38°C° 0 mm 2 m/s 731 mmHg 20%
    15:00 +39°C° 0 mm 2 m/s 730 mmHg 20%
    16:00 +39°C° 0 mm 3 m/s 730 mmHg 19%
    17:00 +37°C° 0 mm 3 m/s 730 mmHg 21%
    18:00 +36°C° 0 mm 3 m/s 730 mmHg 23%
    19:00 +35°C° 0 mm 3 m/s 730 mmHg 25%
    20:00 +34°C° 0 mm 3 m/s 730 mmHg 26%
    21:00 +32°C° 0 mm 2 m/s 731 mmHg 27%
    22:00 +31°C° 0 mm 2 m/s 731 mmHg 29%
    23:00 +31°C° 0 mm 3 m/s 731 mmHg 31%

    Mâine, 23 Februarie, Joi

    Timp Temperatura Precipitaţii Vânt Presiune Umiditate
    00:00 +30°C° 0 mm 4 m/s 731 mmHg 33%
    01:00 +29°C° 0 mm 5 m/s 732 mmHg 35%
    02:00 +28°C° 0 mm 5 m/s 732 mmHg 39%
    03:00 +27°C° 0 mm 5 m/s 732 mmHg 42%
    04:00 +27°C° 0 mm 6 m/s 732 mmHg 45%
    05:00 +27°C° 0 mm 6 m/s 733 mmHg 45%
    06:00 +27°C° 0 mm 6 m/s 733 mmHg 45%
    07:00 +27°C° 0 mm 7 m/s 733 mmHg 45%
    08:00 +29°C° 0 mm 6 m/s 733 mmHg 40%
    09:00 +32°C° 0 mm 6 m/s 733 mmHg 35%
    10:00 +34°C° 0 mm 6 m/s 733 mmHg 31%
    11:00 +35°C° 0 mm 6 m/s 733 mmHg 28%
    12:00 +37°C° 0 mm 5 m/s 732 mmHg 26%
    13:00 +39°C° 0 mm 5 m/s 731 mmHg 23%
    14:00 +40°C° 0 mm 5 m/s 731 mmHg 23%
    15:00 +40°C° 0 mm 4 m/s 730 mmHg 22%
    16:00 +41°C° 0 mm 4 m/s 729 mmHg 21%
    17:00 +38°C° 0 mm 4 m/s 729 mmHg 23%
    18:00 +37°C° 0 mm 4 m/s 729 mmHg 25%
    19:00 +35°C° 0 mm 4 m/s 729 mmHg 27%
    20:00 +35°C° 0 mm 4 m/s 730 mmHg 28%
    21:00 +34°C° 0 mm 5 m/s 730 mmHg 29%
    22:00 +33°C° 0 mm 6 m/s 730 mmHg 30%
    23:00 +32°C° 0,1 mm 6 m/s 730 mmHg 33%

    Poimâine, 24 Februarie, Vineri

    Timp Temperatura Precipitaţii Vânt Presiune Umiditate
    00:00 +30°C° 0,1 mm 6 m/s 730 mmHg 36%
    01:00 +29°C° 0,1 mm 6 m/s 730 mmHg 39%
    02:00 +28°C° 0 mm 5 m/s 729 mmHg 42%
    03:00 +28°C° 0 mm 4 m/s 729 mmHg 45%
    04:00 +28°C° 0 mm 4 m/s 729 mmHg 48%
    05:00 +28°C° 0,1 mm 4 m/s 730 mmHg 49%
    06:00 +29°C° 0,1 mm 5 m/s 730 mmHg 51%
    07:00 +29°C° 0,1 mm 5 m/s 731 mmHg 52%
    08:00 +32°C° 0 mm 5 m/s 731 mmHg 47%
    09:00 +34°C° 0 mm 4 m/s 731 mmHg 43%
    10:00 +36°C° 0 mm 3 m/s 731 mmHg 38%
    11:00 +37°C° 0 mm 4 m/s 731 mmHg 34%
    12:00 +38°C° 0 mm 4 m/s 730 mmHg 31%
    13:00 +41°C° 0 mm 4 m/s 730 mmHg 27%
    14:00 +41°C° 0 mm 4 m/s 730 mmHg 27%
    15:00 +41°C° 0 mm 5 m/s 729 mmHg 26%
    16:00 +41°C° 0 mm 6 m/s 729 mmHg 26%
    17:00 +39°C° 0,3 mm 7 m/s 729 mmHg 31%
    18:00 +37°C° 0,3 mm 9 m/s 730 mmHg 36%
    19:00 +34°C° 0,3 mm 11 m/s 730 mmHg 42%
    20:00 +32°C° 0,6 mm 10 m/s 731 mmHg 47%
    21:00 +29°C° 0,6 mm 10 m/s 732 mmHg 51%
    22:00 +26°C° 0,6 mm 10 m/s 732 mmHg 56%
    23:00 +26°C° 0,3 mm 10 m/s 732 mmHg 60%

    25 Februarie, Sâmbătă

    Timp Temperatura Precipitaţii Vânt Presiune Umiditate
    00:00 +24°C° 0,3 mm 9 m/s 733 mmHg 63%
    01:00 +23°C° 0,3 mm 8 m/s 733 mmHg 67%
    02:00 +23°C° 0,2 mm 7 m/s 733 mmHg 69%
    03:00 +22°C° 0,2 mm 7 m/s 733 mmHg 71%
    04:00 +22°C° 0,2 mm 6 m/s 733 mmHg 73%
    05:00 +22°C° 0,2 mm 5 m/s 733 mmHg 73%
    06:00 +22°C° 0,2 mm 5 m/s 734 mmHg 72%
    07:00 +22°C° 0,2 mm 4 m/s 734 mmHg 72%
    08:00 +25°C° 0,1 mm 4 m/s 734 mmHg 66%
    09:00 +26°C° 0,1 mm 3 m/s 734 mmHg 61%
    10:00 +28°C° 0,1 mm 3 m/s 734 mmHg 56%
    11:00 +29°C° 0 mm 3 m/s 733 mmHg 51%
    12:00 +31°C° 0 mm 3 m/s 732 mmHg 47%
    13:00 +34°C° 0 mm 3 m/s 731 mmHg 43%
    14:00 +34°C° 0 mm 4 m/s 731 mmHg 41%
    15:00 +35°C° 0 mm 4 m/s 730 mmHg 40%
    16:00 +36°C° 0 mm 4 m/s 730 mmHg 38%
    17:00 +35°C° 0 mm 4 m/s 730 mmHg 42%
    18:00 +34°C° 0 mm 3 m/s 730 mmHg 45%
    19:00 +33°C° 0 mm 3 m/s 730 mmHg 48%
    20:00 +31°C° 0,2 mm 3 m/s 730 mmHg 51%
    21:00 +30°C° 0,2 mm 3 m/s 730 mmHg 54%
    22:00 +30°C° 0,2 mm 3 m/s 730 mmHg 57%
    23:00 +29°C° 0,4 mm 3 m/s 729 mmHg 61%

    26 Februarie, Duminică

    Timp Temperatura Precipitaţii Vânt Presiune Umiditate
    00:00 +29°C° 0,4 mm 2 m/s 729 mmHg 64%
    01:00 +28°C° 0,4 mm 2 m/s 728 mmHg 68%
    02:00 +28°C° 0,3 mm 2 m/s 728 mmHg 70%
    03:00 +28°C° 0,3 mm 2 m/s 728 mmHg 72%
    04:00 +27°C° 0,3 mm 1 m/s 728 mmHg 73%
    05:00 +28°C° 0 mm 1 m/s 728 mmHg 70%
    06:00 +29°C° 0 mm 1 m/s 728 mmHg 67%
    07:00 +29°C° 0 mm 1 m/s 728 mmHg 64%
    08:00 +31°C° 0 mm 2 m/s 729 mmHg 56%
    09:00 +34°C° 0 mm 2 m/s 729 mmHg 48%
    10:00 +36°C° 0 mm 3 m/s 729 mmHg 40%
    11:00 +37°C° 0 mm 3 m/s 728 mmHg 35%
    12:00 +38°C° 0 mm 3 m/s 728 mmHg 31%
    13:00 +39°C° 0 mm 3 m/s 728 mmHg 26%
    14:00 +39°C° 0 mm 3 m/s 727 mmHg 24%
    15:00 +40°C° 0 mm 3 m/s 727 mmHg 21%
    16:00 +40°C° 0 mm 3 m/s 727 mmHg 18%
    17:00 +38°C° 0 mm 3 m/s 727 mmHg 19%
    18:00 +37°C° 0 mm 4 m/s 728 mmHg 20%
    19:00 +35°C° 0 mm 4 m/s 728 mmHg 20%
    20:00 +34°C° 0 mm 5 m/s 729 mmHg 28%
    21:00 +32°C° 0 mm 6 m/s 729 mmHg 35%
    22:00 +30°C° 0 mm 7 m/s 730 mmHg 42%
    23:00 +29°C° 0 mm 8 m/s 730 mmHg 47%

    27 Februarie, Luni

    Timp Temperatura Precipitaţii Vânt Presiune Umiditate
    00:00 +27°C° 0 mm 8 m/s 731 mmHg 53%
    01:00 +26°C° 0 mm 8 m/s 731 mmHg 59%
    02:00 +26°C° 0,1 mm 7 m/s 732 mmHg 58%
    03:00 +24°C° 0,1 mm 7 m/s 732 mmHg 58%
    04:00 +23°C° 0,1 mm 6 m/s 733 mmHg 58%
    05:00 +23°C° 0,1 mm 6 m/s 733 mmHg 57%
    06:00 +23°C° 0,1 mm 7 m/s 734 mmHg 56%
    07:00 +23°C° 0,1 mm 7 m/s 734 mmHg 55%
    08:00 +24°C° 0,1 mm 6 m/s 735 mmHg 50%
    09:00 +26°C° 0,1 mm 6 m/s 735 mmHg 46%
    10:00 +28°C° 0,1 mm 6 m/s 735 mmHg 41%
    11:00 +29°C° 0 mm 6 m/s 735 mmHg 39%
    12:00 +30°C° 0 mm 6 m/s 734 mmHg 37%
    13:00 +32°C° 0 mm 5 m/s 734 mmHg 34%
    14:00 +32°C° 0 mm 5 m/s 733 mmHg 34%
    15:00 +32°C° 0 mm 6 m/s 733 mmHg 34%
    16:00 +32°C° 0 mm 6 m/s 733 mmHg 34%
    17:00 +30°C° 0 mm 6 m/s 733 mmHg 38%
    18:00 +28°C° 0 mm 6 m/s 733 mmHg 43%
    19:00 +27°C° 0 mm 7 m/s 734 mmHg 47%
    20:00 +26°C° 0 mm 7 m/s 734 mmHg 51%
    21:00 +24°C° 0 mm 6 m/s 734 mmHg 56%
    22:00 +23°C° 0 mm 6 m/s 735 mmHg 60%
    23:00 +23°C° 0 mm 6 m/s 734 mmHg 63%
    Arată mai mult